Time,TemperatureF,DewpointF,PressureIn,WindDirection,WindDirectionDegrees,WindSpeedMPH,WindSpeedGustMPH,Humidity,HourlyPrecipIn,Conditions,Clouds,dailyrainin,SoftwareType,DateUTC
2013-01-07 00:04:00,29.2,14.9,29.93,North,0,0.0,0.0,55,0.00,,,0.00,WUHU216HW,2013-01-07 07:04:00,
2013-01-07 00:09:00,28.8,14.7,29.93,North,0,0.0,0.0,55,0.00,,,0.00,WUHU216HW,2013-01-07 07:09:00,
2013-01-07 00:14:00,28.6,14.0,29.93,North,0,0.0,0.0,54,0.00,,,0.00,WUHU216HW,2013-01-07 07:14:00,
2013-01-07 00:19:00,28.8,13.8,29.93,North,0,0.0,0.0,53,0.00,,,0.00,WUHU216HW,2013-01-07 07:19:00,
2013-01-07 00:24:00,29.0,13.6,29.92,North,0,0.0,0.0,52,0.00,,,0.00,WUHU216HW,2013-01-07 07:24:00,
2013-01-07 00:29:00,29.5,11.7,29.92,North,0,0.0,0.0,47,0.00,,,0.00,WUHU216HW,2013-01-07 07:29:00,
2013-01-07 00:34:00,31.1,11.2,29.92,North,0,0.0,0.0,43,0.00,,,0.00,WUHU216HW,2013-01-07 07:34:00,
2013-01-07 00:39:00,32.6,10.9,29.92,North,0,0.0,0.0,40,0.00,,,0.00,WUHU216HW,2013-01-07 07:39:00,
2013-01-07 00:44:00,35.8,9.3,29.92,North,0,0.0,0.0,33,0.00,,,0.00,WUHU216HW,2013-01-07 07:44:00,
2013-01-07 00:49:00,38.2,11.4,29.92,North,0,0.0,0.0,33,0.00,,,0.00,WUHU216HW,2013-01-07 07:49:00,
2013-01-07 00:54:00,38.0,11.3,29.92,North,0,0.0,0.0,33,0.00,,,0.00,WUHU216HW,2013-01-07 07:54:00,
2013-01-07 00:59:00,37.4,10.8,29.92,North,0,0.0,0.0,33,0.00,,,0.00,WUHU216HW,2013-01-07 07:59:00,
2013-01-07 01:04:00,36.9,10.3,29.92,North,0,0.0,0.0,33,0.00,,,0.00,WUHU216HW,2013-01-07 08:04:00,
2013-01-07 01:09:00,36.4,9.8,29.92,North,0,0.0,0.0,33,0.00,,,0.00,WUHU216HW,2013-01-07 08:09:00,
2013-01-07 01:14:00,36.2,10.9,29.92,North,0,0.0,0.0,35,0.00,,,0.00,WUHU216HW,2013-01-07 08:14:00,
2013-01-07 01:19:00,36.0,9.5,29.92,North,0,0.0,0.0,33,0.00,,,0.00,WUHU216HW,2013-01-07 08:19:00,
2013-01-07 01:24:00,36.0,9.5,29.93,North,0,0.0,0.0,33,0.00,,,0.00,WUHU216HW,2013-01-07 08:24:00,
2013-01-07 01:29:00,36.0,9.5,29.92,North,0,0.0,0.0,33,0.00,,,0.00,WUHU216HW,2013-01-07 08:29:00,
2013-01-07 01:34:00,35.6,8.5,29.93,North,0,0.0,0.0,32,0.00,,,0.00,WUHU216HW,2013-01-07 08:34:00,
2013-01-07 01:39:00,35.6,9.2,29.93,North,0,0.0,0.0,33,0.00,,,0.00,WUHU216HW,2013-01-07 08:39:00,
2013-01-07 01:44:00,35.6,8.5,29.93,North,0,0.0,0.0,32,0.00,,,0.00,WUHU216HW,2013-01-07 08:44:00,
2013-01-07 01:49:00,35.6,9.2,29.93,North,0,0.0,0.0,33,0.00,,,0.00,WUHU216HW,2013-01-07 08:49:00,
2013-01-07 01:54:00,35.5,9.6,29.93,North,0,0.0,0.0,34,0.00,,,0.00,WUHU216HW,2013-01-07 08:54:00,
2013-01-07 01:59:00,34.9,9.8,29.92,North,0,0.0,0.0,35,0.00,,,0.00,WUHU216HW,2013-01-07 08:59:00,
2013-01-07 02:04:00,34.6,9.6,29.93,North,0,0.0,0.0,35,0.00,,,0.00,WUHU216HW,2013-01-07 09:04:00,
2013-01-07 02:09:00,34.0,9.7,29.93,North,0,0.0,0.0,36,0.00,,,0.00,WUHU216HW,2013-01-07 09:09:00,
2013-01-07 02:14:00,33.5,9.2,29.93,North,0,0.0,0.0,36,0.00,,,0.00,WUHU216HW,2013-01-07 09:14:00,
2013-01-07 02:19:00,33.1,8.9,29.93,North,0,0.0,0.0,36,0.00,,,0.00,WUHU216HW,2013-01-07 09:19:00,
2013-01-07 02:24:00,32.8,9.2,29.93,North,0,0.0,0.0,37,0.00,,,0.00,WUHU216HW,2013-01-07 09:24:00,
2013-01-07 02:29:00,32.0,9.2,29.93,North,0,0.0,0.0,38,0.00,,,0.00,WUHU216HW,2013-01-07 09:29:00,
2013-01-07 02:34:00,31.7,8.2,29.93,North,0,0.0,0.0,37,0.00,,,0.00,WUHU216HW,2013-01-07 09:34:00,
2013-01-07 02:39:00,31.3,8.6,29.93,North,0,0.0,0.0,38,0.00,,,0.00,WUHU216HW,2013-01-07 09:39:00,
2013-01-07 02:44:00,31.0,8.8,29.93,North,0,0.0,0.0,39,0.00,,,0.00,WUHU216HW,2013-01-07 09:44:00,
2013-01-07 02:49:00,30.6,9.2,29.93,North,0,0.0,0.0,40,0.00,,,0.00,WUHU216HW,2013-01-07 09:49:00,
2013-01-07 02:54:00,30.1,9.2,29.93,North,0,0.0,0.0,41,0.00,,,0.00,WUHU216HW,2013-01-07 09:54:00,
2013-01-07 02:59:00,29.7,8.8,29.93,North,0,0.0,0.0,41,0.00,,,0.00,WUHU216HW,2013-01-07 09:59:00,
2013-01-07 03:04:00,29.5,8.6,29.93,North,0,0.0,0.0,41,0.00,,,0.00,WUHU216HW,2013-01-07 10:04:00,
2013-01-07 03:09:00,29.3,8.6,29.93,North,0,0.0,0.0,41,0.00,,,0.00,WUHU216HW,2013-01-07 10:09:00,
2013-01-07 03:14:00,29.2,8.4,29.93,North,0,0.0,0.0,41,0.00,,,0.00,WUHU216HW,2013-01-07 10:14:00,
2013-01-07 03:19:00,29.2,8.4,29.93,North,0,0.0,0.0,41,0.00,,,0.00,WUHU216HW,2013-01-07 10:19:00,
2013-01-07 03:24:00,29.3,8.6,29.93,North,0,0.0,0.0,41,0.00,,,0.00,WUHU216HW,2013-01-07 10:24:00,
2013-01-07 03:29:00,29.2,8.4,29.92,North,0,0.0,0.0,41,0.00,,,0.00,WUHU216HW,2013-01-07 10:29:00,
2013-01-07 03:34:00,29.9,7.8,29.92,North,0,0.0,0.0,39,0.00,,,0.00,WUHU216HW,2013-01-07 10:34:00,
2013-01-07 03:39:00,31.3,7.9,29.92,North,0,0.0,0.0,37,0.00,,,0.00,WUHU216HW,2013-01-07 10:39:00,
2013-01-07 03:44:00,32.0,7.9,29.92,North,0,0.0,0.0,36,0.00,,,0.00,WUHU216HW,2013-01-07 10:44:00,
2013-01-07 03:49:00,32.2,8.7,29.92,North,0,0.0,0.0,37,0.00,,,0.00,WUHU216HW,2013-01-07 10:49:00,
2013-01-07 03:54:00,31.9,8.4,29.92,North,0,0.0,0.0,37,0.00,,,0.00,WUHU216HW,2013-01-07 10:54:00,
2013-01-07 03:59:00,32.0,8.6,29.92,North,0,0.0,0.0,37,0.00,,,0.00,WUHU216HW,2013-01-07 10:59:00,
2013-01-07 04:04:00,32.0,9.2,29.92,North,0,0.0,0.0,38,0.00,,,0.00,WUHU216HW,2013-01-07 11:04:00,
2013-01-07 04:09:00,32.2,9.4,29.92,North,0,0.0,0.0,38,0.00,,,0.00,WUHU216HW,2013-01-07 11:09:00,
2013-01-07 04:14:00,32.2,9.4,29.91,North,0,0.0,0.0,38,0.00,,,0.00,WUHU216HW,2013-01-07 11:14:00,
2013-01-07 04:19:00,32.4,9.6,29.91,North,0,0.0,0.0,38,0.00,,,0.00,WUHU216HW,2013-01-07 11:19:00,
2013-01-07 04:24:00,32.4,9.6,29.91,North,0,0.0,0.0,38,0.00,,,0.00,WUHU216HW,2013-01-07 11:24:00,
2013-01-07 04:29:00,32.4,8.9,29.91,North,0,0.0,0.0,37,0.00,,,0.00,WUHU216HW,2013-01-07 11:29:00,
2013-01-07 04:34:00,32.4,10.2,29.92,North,0,0.0,0.0,39,0.00,,,0.00,WUHU216HW,2013-01-07 11:34:00,
2013-01-07 04:39:00,31.0,9.5,29.93,North,0,0.0,0.0,40,0.00,,,0.00,WUHU216HW,2013-01-07 11:39:00,
2013-01-07 04:44:00,30.6,9.2,29.93,North,0,0.0,0.0,40,0.00,,,0.00,WUHU216HW,2013-01-07 11:44:00,
2013-01-07 04:49:00,30.1,9.2,29.93,North,0,0.0,0.0,41,0.00,,,0.00,WUHU216HW,2013-01-07 11:49:00,
2013-01-07 04:54:00,29.7,8.8,29.94,North,0,0.0,0.0,41,0.00,,,0.00,WUHU216HW,2013-01-07 11:54:00,
2013-01-07 04:59:00,29.9,9.0,29.94,North,0,0.0,0.0,41,0.00,,,0.00,WUHU216HW,2013-01-07 11:59:00,
2013-01-07 05:04:00,29.9,10.5,29.94,North,0,0.0,0.0,44,0.00,,,0.00,WUHU216HW,2013-01-07 12:04:00,
2013-01-07 05:09:00,29.9,11.5,29.95,North,0,0.0,0.0,46,0.00,,,0.00,WUHU216HW,2013-01-07 12:09:00,
2013-01-07 05:14:00,29.7,12.3,29.95,North,0,0.0,0.0,48,0.00,,,0.00,WUHU216HW,2013-01-07 12:14:00,
2013-01-07 05:19:00,29.3,12.5,29.95,North,0,0.0,0.0,49,0.00,,,0.00,WUHU216HW,2013-01-07 12:19:00,
2013-01-07 05:24:00,29.0,12.3,29.95,North,0,0.0,0.0,49,0.00,,,0.00,WUHU216HW,2013-01-07 12:24:00,
2013-01-07 05:29:00,28.4,12.2,29.95,North,0,0.0,0.0,50,0.00,,,0.00,WUHU216HW,2013-01-07 12:29:00,
2013-01-07 05:34:00,28.3,12.1,29.96,North,0,0.0,0.0,50,0.00,,,0.00,WUHU216HW,2013-01-07 12:34:00,
2013-01-07 05:39:00,27.7,11.0,29.96,North,0,0.0,0.0,49,0.00,,,0.00,WUHU216HW,2013-01-07 12:39:00,
2013-01-07 05:44:00,27.4,11.6,29.96,North,0,0.0,0.0,51,0.00,,,0.00,WUHU216HW,2013-01-07 12:44:00,
2013-01-07 05:49:00,26.8,11.1,29.96,North,0,0.0,0.0,51,0.00,,,0.00,WUHU216HW,2013-01-07 12:49:00,
2013-01-07 05:54:00,26.6,10.9,29.96,North,0,0.0,0.0,51,0.00,,,0.00,WUHU216HW,2013-01-07 12:54:00,
2013-01-07 05:59:00,26.6,11.3,29.97,North,0,0.0,0.0,52,0.00,,,0.00,WUHU216HW,2013-01-07 12:59:00,
2013-01-07 06:04:00,26.6,11.3,29.97,North,0,0.0,0.0,52,0.00,,,0.00,WUHU216HW,2013-01-07 13:04:00,
2013-01-07 06:09:00,26.8,11.4,29.97,North,0,0.0,0.0,52,0.00,,,0.00,WUHU216HW,2013-01-07 13:09:00,
2013-01-07 06:14:00,27.5,11.3,29.97,North,0,0.0,0.0,50,0.00,,,0.00,WUHU216HW,2013-01-07 13:14:00,
2013-01-07 06:19:00,27.7,11.0,29.97,North,0,0.0,0.0,49,0.00,,,0.00,WUHU216HW,2013-01-07 13:19:00,
2013-01-07 06:24:00,27.7,10.5,29.97,North,0,0.0,0.0,48,0.00,,,0.00,WUHU216HW,2013-01-07 13:24:00,
2013-01-07 06:29:00,27.2,10.0,29.97,North,0,0.0,0.0,48,0.00,,,0.00,WUHU216HW,2013-01-07 13:29:00,
2013-01-07 06:34:00,26.6,9.5,29.97,North,0,0.0,0.0,48,0.00,,,0.00,WUHU216HW,2013-01-07 13:34:00,
2013-01-07 06:39:00,26.1,10.0,29.98,North,0,0.0,0.0,50,0.00,,,0.00,WUHU216HW,2013-01-07 13:39:00,
2013-01-07 06:44:00,26.1,10.0,29.98,North,0,0.0,0.0,50,0.00,,,0.00,WUHU216HW,2013-01-07 13:44:00,
2013-01-07 06:49:00,26.3,9.6,29.98,North,0,0.0,0.0,49,0.00,,,0.00,WUHU216HW,2013-01-07 13:49:00,
2013-01-07 06:54:00,26.6,10.0,29.98,North,0,0.0,0.0,49,0.00,,,0.00,WUHU216HW,2013-01-07 13:54:00,
2013-01-07 06:59:00,26.6,9.5,29.98,North,0,0.0,0.0,48,0.00,,,0.00,WUHU216HW,2013-01-07 13:59:00,
2013-01-07 07:04:00,26.6,10.0,29.98,North,0,0.0,0.0,49,0.00,,,0.00,WUHU216HW,2013-01-07 14:04:00,
2013-01-07 07:09:00,26.5,9.3,29.98,North,0,0.0,0.0,48,0.00,,,0.00,WUHU216HW,2013-01-07 14:09:00,
2013-01-07 07:14:00,26.3,9.6,29.99,North,0,0.0,0.0,49,0.00,,,0.00,WUHU216HW,2013-01-07 14:14:00,
2013-01-07 07:19:00,25.9,9.3,29.99,North,0,0.0,0.0,49,0.00,,,0.00,WUHU216HW,2013-01-07 14:19:00,
2013-01-07 07:24:00,25.9,9.3,29.99,North,0,0.0,0.0,49,0.00,,,0.00,WUHU216HW,2013-01-07 14:24:00,
2013-01-07 07:29:00,25.7,9.2,29.99,North,0,0.0,0.0,49,0.00,,,0.00,WUHU216HW,2013-01-07 14:29:00,
2013-01-07 07:34:00,25.9,9.3,29.99,North,0,0.0,0.0,49,0.00,,,0.00,WUHU216HW,2013-01-07 14:34:00,
2013-01-07 07:39:00,25.9,9.8,29.99,North,0,0.0,0.0,50,0.00,,,0.00,WUHU216HW,2013-01-07 14:39:00,
2013-01-07 07:44:00,25.9,9.3,29.99,North,0,0.0,0.0,49,0.00,,,0.00,WUHU216HW,2013-01-07 14:44:00,
2013-01-07 07:49:00,25.9,9.3,29.99,North,0,0.0,0.0,49,0.00,,,0.00,WUHU216HW,2013-01-07 14:49:00,
2013-01-07 07:54:00,26.1,9.5,29.99,North,0,0.0,0.0,49,0.00,,,0.00,WUHU216HW,2013-01-07 14:54:00,
2013-01-07 07:59:00,26.1,9.5,30.00,North,0,0.0,0.0,49,0.00,,,0.00,WUHU216HW,2013-01-07 14:59:00,
2013-01-07 08:04:00,26.3,9.6,30.00,North,0,0.0,0.0,49,0.00,,,0.00,WUHU216HW,2013-01-07 15:04:00,
2013-01-07 08:09:00,26.8,10.6,30.00,North,0,0.0,0.0,50,0.00,,,0.00,WUHU216HW,2013-01-07 15:09:00,
2013-01-07 08:14:00,27.0,10.8,30.00,North,0,0.0,0.0,50,0.00,,,0.00,WUHU216HW,2013-01-07 15:14:00,
2013-01-07 08:19:00,27.5,10.9,30.00,North,0,0.0,0.0,49,0.00,,,0.00,WUHU216HW,2013-01-07 15:19:00,
2013-01-07 08:24:00,28.1,11.3,30.00,North,0,0.0,0.0,49,0.00,,,0.00,WUHU216HW,2013-01-07 15:24:00,
2013-01-07 08:29:00,28.6,12.4,30.00,North,0,0.0,0.0,50,0.00,,,0.00,WUHU216HW,2013-01-07 15:29:00,
2013-01-07 08:34:00,29.2,12.4,30.00,North,0,0.0,0.0,49,0.00,,,0.00,WUHU216HW,2013-01-07 15:34:00,
2013-01-07 08:39:00,29.7,12.9,30.01,North,0,0.0,0.0,49,0.00,,,0.00,WUHU216HW,2013-01-07 15:39:00,
2013-01-07 08:44:00,30.2,12.9,30.00,North,0,0.0,0.0,48,0.00,,,0.00,WUHU216HW,2013-01-07 15:44:00,
2013-01-07 08:49:00,30.8,12.3,30.00,North,0,0.0,0.0,46,0.00,,,0.00,WUHU216HW,2013-01-07 15:49:00,
2013-01-07 08:54:00,32.0,13.0,30.00,North,0,0.0,0.0,45,0.00,,,0.00,WUHU216HW,2013-01-07 15:54:00,
2013-01-07 08:59:00,33.3,12.6,30.00,North,0,0.0,0.0,42,0.00,,,0.00,WUHU216HW,2013-01-07 15:59:00,
2013-01-07 09:04:00,34.6,12.7,30.00,North,0,0.0,0.0,40,0.00,,,0.00,WUHU216HW,2013-01-07 16:04:00,
2013-01-07 09:09:00,35.6,13.7,30.00,North,0,0.0,0.0,40,0.00,,,0.00,WUHU216HW,2013-01-07 16:09:00,
2013-01-07 09:14:00,37.1,13.7,30.00,North,0,0.0,0.0,38,0.00,,,0.00,WUHU216HW,2013-01-07 16:14:00,
2013-01-07 09:19:00,38.5,13.1,30.00,North,0,0.0,0.0,35,0.00,,,0.00,WUHU216HW,2013-01-07 16:19:00,
2013-01-07 09:24:00,38.9,13.3,30.00,North,0,0.0,0.0,35,0.00,,,0.00,WUHU216HW,2013-01-07 16:24:00,
2013-01-07 09:29:00,40.0,13.1,30.00,North,0,0.0,0.0,33,0.00,,,0.00,WUHU216HW,2013-01-07 16:29:00,
2013-01-07 09:34:00,40.7,13.7,30.00,North,0,0.0,0.0,33,0.00,,,0.00,WUHU216HW,2013-01-07 16:34:00,
2013-01-07 09:39:00,41.9,13.4,30.00,North,0,0.0,0.0,31,0.00,,,0.00,WUHU216HW,2013-01-07 16:39:00,
2013-01-07 09:44:00,42.8,13.5,30.00,North,0,0.0,0.0,30,0.00,,,0.00,WUHU216HW,2013-01-07 16:44:00,
2013-01-07 09:49:00,43.9,14.5,30.00,North,0,0.0,0.0,30,0.00,,,0.00,WUHU216HW,2013-01-07 16:49:00,
2013-01-07 09:54:00,44.6,15.1,30.00,North,0,0.0,0.0,30,0.00,,,0.00,WUHU216HW,2013-01-07 16:54:00,
2013-01-07 09:59:00,45.0,14.6,30.00,North,0,0.0,0.0,29,0.00,,,0.00,WUHU216HW,2013-01-07 16:59:00,
2013-01-07 10:04:00,45.9,14.4,30.00,North,0,0.0,0.0,28,0.00,,,0.00,WUHU216HW,2013-01-07 17:04:00,
2013-01-07 10:09:00,46.1,14.6,30.00,North,0,0.0,0.0,28,0.00,,,0.00,WUHU216HW,2013-01-07 17:09:00,
2013-01-07 10:14:00,46.4,15.0,30.00,North,0,0.0,0.0,28,0.00,,,0.00,WUHU216HW,2013-01-07 17:14:00,
2013-01-07 10:19:00,46.4,14.0,29.99,North,0,0.0,0.0,27,0.00,,,0.00,WUHU216HW,2013-01-07 17:19:00,
2013-01-07 10:24:00,46.4,14.0,29.99,North,0,0.0,0.0,27,0.00,,,0.00,WUHU216HW,2013-01-07 17:24:00,
2013-01-07 10:29:00,46.8,15.2,29.99,North,0,0.0,0.0,28,0.00,,,0.00,WUHU216HW,2013-01-07 17:29:00,
2013-01-07 10:34:00,47.7,15.1,29.98,North,0,0.0,0.0,27,0.00,,,0.00,WUHU216HW,2013-01-07 17:34:00,
2013-01-07 10:39:00,48.8,13.2,29.98,North,0,0.0,0.0,24,0.00,,,0.00,WUHU216HW,2013-01-07 17:39:00,
2013-01-07 10:44:00,49.3,13.7,29.97,North,0,0.0,0.0,24,0.00,,,0.00,WUHU216HW,2013-01-07 17:44:00,
2013-01-07 10:49:00,49.5,12.9,29.97,North,0,0.0,0.0,23,0.00,,,0.00,WUHU216HW,2013-01-07 17:49:00,
2013-01-07 10:54:00,49.9,14.1,29.97,North,0,0.0,0.0,24,0.00,,,0.00,WUHU216HW,2013-01-07 17:54:00,
2013-01-07 10:59:00,50.8,15.0,29.97,North,0,0.0,0.0,24,0.00,,,0.00,WUHU216HW,2013-01-07 17:59:00,
2013-01-07 11:04:00,52.2,15.2,29.97,North,0,0.0,0.0,23,0.00,,,0.00,WUHU216HW,2013-01-07 18:04:00,
2013-01-07 11:09:00,52.6,14.5,29.97,North,0,0.0,0.0,22,0.00,,,0.00,WUHU216HW,2013-01-07 18:09:00,
2013-01-07 11:14:00,51.8,14.9,29.97,North,0,0.0,0.0,23,0.00,,,0.00,WUHU216HW,2013-01-07 18:14:00,
2013-01-07 11:24:00,52.4,15.3,29.96,North,0,0.0,0.0,23,0.00,,,0.00,WUHU216HW,2013-01-07 18:24:00,
2013-01-07 11:34:00,51.8,14.9,29.95,North,0,0.0,0.0,23,0.00,,,0.00,WUHU216HW,2013-01-07 18:34:00,
2013-01-07 11:43:00,51.8,14.0,29.95,North,0,0.0,0.0,22,0.00,,,0.00,WUHU216HW,2013-01-07 18:43:00,
2013-01-07 11:53:00,51.1,13.3,29.95,North,0,0.0,0.0,22,0.00,,,0.00,WUHU216HW,2013-01-07 18:53:00,
2013-01-07 12:03:00,50.8,13.1,29.95,North,0,0.0,0.0,22,0.00,,,0.00,WUHU216HW,2013-01-07 19:03:00,
2013-01-07 12:13:00,52.6,13.6,29.94,North,0,0.0,0.0,21,0.00,,,0.00,WUHU216HW,2013-01-07 19:13:00,
2013-01-07 12:22:00,52.9,9.9,29.93,North,0,0.0,0.0,18,0.00,,,0.00,WUHU216HW,2013-01-07 19:22:00,
2013-01-07 12:27:00,52.6,9.6,29.93,North,0,0.0,0.0,18,0.00,,,0.00,WUHU216HW,2013-01-07 19:27:00,
2013-01-07 12:32:00,52.2,9.4,29.93,North,0,0.0,0.0,18,0.00,,,0.00,WUHU216HW,2013-01-07 19:32:00,
2013-01-07 12:37:00,53.3,11.7,29.92,North,0,0.0,0.0,19,0.00,,,0.00,WUHU216HW,2013-01-07 19:37:00,
2013-01-07 12:42:00,54.7,11.4,29.92,North,0,0.0,0.0,18,0.00,,,0.00,WUHU216HW,2013-01-07 19:42:00,
2013-01-07 12:48:00,55.1,10.3,29.92,North,0,0.0,0.0,17,0.00,,,0.00,WUHU216HW,2013-01-07 19:48:00,
2013-01-07 12:52:00,55.1,11.7,29.92,North,0,0.0,0.0,18,0.00,,,0.00,WUHU216HW,2013-01-07 19:52:00,
2013-01-07 12:57:00,54.9,11.6,29.92,North,0,0.0,0.0,18,0.00,,,0.00,WUHU216HW,2013-01-07 19:57:00,
2013-01-07 13:03:00,54.9,10.1,29.92,North,0,0.0,0.0,17,0.00,,,0.00,WUHU216HW,2013-01-07 20:03:00,
2013-01-07 13:08:00,54.0,9.3,29.92,North,0,0.0,0.0,17,0.00,,,0.00,WUHU216HW,2013-01-07 20:08:00,
2013-01-07 13:13:00,53.8,7.7,29.92,North,0,0.0,0.0,16,0.00,,,0.00,WUHU216HW,2013-01-07 20:13:00,
2013-01-07 13:19:00,53.6,7.5,29.92,North,0,0.0,0.0,16,0.00,,,0.00,WUHU216HW,2013-01-07 20:19:00,
2013-01-07 13:24:00,53.8,9.1,29.91,North,0,0.0,0.0,17,0.00,,,0.00,WUHU216HW,2013-01-07 20:24:00,
2013-01-07 13:29:00,54.0,9.3,29.91,North,0,0.0,0.0,17,0.00,,,0.00,WUHU216HW,2013-01-07 20:29:00,
2013-01-07 13:34:00,54.4,11.1,29.91,North,0,0.0,0.0,18,0.00,,,0.00,WUHU216HW,2013-01-07 20:34:00,
2013-01-07 13:39:00,54.7,11.4,29.90,North,0,0.0,0.0,18,0.00,,,0.00,WUHU216HW,2013-01-07 20:39:00,
2013-01-07 13:44:00,54.4,9.6,29.90,North,0,0.0,0.0,17,0.00,,,0.00,WUHU216HW,2013-01-07 20:44:00,
2013-01-07 13:49:00,53.6,9.0,29.90,North,0,0.0,0.0,17,0.00,,,0.00,WUHU216HW,2013-01-07 20:49:00,
2013-01-07 13:54:00,53.6,9.0,29.90,North,0,0.0,0.0,17,0.00,,,0.00,WUHU216HW,2013-01-07 20:54:00,
2013-01-07 14:00:00,53.6,9.0,29.90,North,0,0.0,0.0,17,0.00,,,0.00,WUHU216HW,2013-01-07 21:00:00,
2013-01-07 14:05:00,53.3,8.6,29.89,North,0,0.0,0.0,17,0.00,,,0.00,WUHU216HW,2013-01-07 21:05:00,
2013-01-07 14:11:00,52.9,8.4,29.90,North,0,0.0,0.0,17,0.00,,,0.00,WUHU216HW,2013-01-07 21:11:00,
2013-01-07 14:16:00,53.1,8.6,29.89,North,0,0.0,0.0,17,0.00,,,0.00,WUHU216HW,2013-01-07 21:16:00,
2013-01-07 14:21:00,53.1,8.6,29.90,North,0,0.0,0.0,17,0.00,,,0.00,WUHU216HW,2013-01-07 21:21:00,
2013-01-07 16:37:00,46.8,8.7,29.88,North,0,0.0,0.0,21,0.00,,,0.00,WUHU216HW,2013-01-07 23:37:00,
2013-01-07 16:42:00,46.3,8.4,29.88,North,0,0.0,0.0,21,0.00,,,0.00,WUHU216HW,2013-01-07 23:42:00,
2013-01-07 16:47:00,45.4,8.6,29.88,North,0,0.0,0.0,22,0.00,,,0.00,WUHU216HW,2013-01-07 23:47:00,
2013-01-07 16:52:00,44.6,7.9,29.88,North,0,0.0,0.0,22,0.00,,,0.00,WUHU216HW,2013-01-07 23:52:00,
2013-01-07 16:57:00,43.6,7.8,29.89,North,0,0.0,0.0,23,0.00,,,0.00,WUHU216HW,2013-01-07 23:57:00,
2013-01-07 17:02:00,42.8,8.1,29.89,North,0,0.0,0.0,24,0.00,,,0.00,WUHU216HW,2013-01-08 00:02:00,
2013-01-07 17:07:00,41.9,8.3,29.89,North,0,0.0,0.0,25,0.00,,,0.00,WUHU216HW,2013-01-08 00:07:00,
2013-01-07 17:12:00,41.0,8.5,29.89,North,0,0.0,0.0,26,0.00,,,0.00,WUHU216HW,2013-01-08 00:12:00,
2013-01-07 17:17:00,40.3,8.7,29.89,North,0,0.0,0.0,27,0.00,,,0.00,WUHU216HW,2013-01-08 00:17:00,
2013-01-07 17:22:00,39.8,9.1,29.88,North,0,0.0,0.0,28,0.00,,,0.00,WUHU216HW,2013-01-08 00:22:00,
2013-01-07 17:27:00,39.6,9.9,29.89,North,0,0.0,0.0,29,0.00,,,0.00,WUHU216HW,2013-01-08 00:27:00,
2013-01-07 17:32:00,39.4,9.7,29.89,North,0,0.0,0.0,29,0.00,,,0.00,WUHU216HW,2013-01-08 00:32:00,
2013-01-07 17:37:00,39.1,9.4,29.88,North,0,0.0,0.0,29,0.00,,,0.00,WUHU216HW,2013-01-08 00:37:00,
2013-01-07 17:42:00,38.7,9.1,29.88,North,0,0.0,0.0,29,0.00,,,0.00,WUHU216HW,2013-01-08 00:42:00,
2013-01-07 17:47:00,38.5,8.9,29.88,North,0,0.0,0.0,29,0.00,,,0.00,WUHU216HW,2013-01-08 00:47:00,
2013-01-07 17:52:00,38.0,10.0,29.89,North,0,0.0,0.0,31,0.00,,,0.00,WUHU216HW,2013-01-08 00:52:00,
2013-01-07 17:57:00,37.6,9.0,29.89,North,0,0.0,0.0,30,0.00,,,0.00,WUHU216HW,2013-01-08 00:57:00,
2013-01-07 18:02:00,36.9,8.4,29.89,North,0,0.0,0.0,30,0.00,,,0.00,WUHU216HW,2013-01-08 01:02:00,
2013-01-07 18:07:00,36.2,7.7,29.88,North,0,0.0,0.0,30,0.00,,,0.00,WUHU216HW,2013-01-08 01:07:00,
2013-01-07 18:12:00,35.3,8.2,29.88,North,0,0.0,0.0,32,0.00,,,0.00,WUHU216HW,2013-01-08 01:12:00,
2013-01-07 18:17:00,34.7,8.4,29.88,North,0,0.0,0.0,33,0.00,,,0.00,WUHU216HW,2013-01-08 01:17:00,
2013-01-07 18:22:00,34.2,9.8,29.88,North,0,0.0,0.0,36,0.00,,,0.00,WUHU216HW,2013-01-08 01:22:00,
2013-01-07 18:27:00,33.8,10.2,29.88,North,0,0.0,0.0,37,0.00,,,0.00,WUHU216HW,2013-01-08 01:27:00,
2013-01-07 18:32:00,33.3,11.0,29.88,North,0,0.0,0.0,39,0.00,,,0.00,WUHU216HW,2013-01-08 01:32:00,
2013-01-07 18:37:00,32.8,9.2,29.88,North,0,0.0,0.0,37,0.00,,,0.00,WUHU216HW,2013-01-08 01:37:00,
2013-01-07 18:42:00,32.6,9.6,29.87,North,0,0.0,0.0,38,0.00,,,0.00,WUHU216HW,2013-01-08 01:42:00,
2013-01-07 18:47:00,32.2,10.6,29.88,North,0,0.0,0.0,40,0.00,,,0.00,WUHU216HW,2013-01-08 01:47:00,
2013-01-07 18:52:00,31.9,9.0,29.87,North,0,0.0,0.0,38,0.00,,,0.00,WUHU216HW,2013-01-08 01:52:00,
2013-01-07 18:57:00,31.3,10.3,29.87,North,0,0.0,0.0,41,0.00,,,0.00,WUHU216HW,2013-01-08 01:57:00,
2013-01-07 19:02:00,31.0,9.5,29.87,North,0,0.0,0.0,40,0.00,,,0.00,WUHU216HW,2013-01-08 02:02:00,
2013-01-07 19:07:00,30.6,10.2,29.87,North,0,0.0,0.0,42,0.00,,,0.00,WUHU216HW,2013-01-08 02:07:00,
2013-01-07 19:12:00,30.2,9.4,29.87,North,0,0.0,0.0,41,0.00,,,0.00,WUHU216HW,2013-01-08 02:12:00,
2013-01-07 19:17:00,29.7,8.8,29.87,North,0,0.0,0.0,41,0.00,,,0.00,WUHU216HW,2013-01-08 02:17:00,
2013-01-07 19:22:00,29.3,9.6,29.87,North,0,0.0,0.0,43,0.00,,,0.00,WUHU216HW,2013-01-08 02:22:00,
2013-01-07 19:27:00,29.2,9.9,29.86,North,0,0.0,0.0,44,0.00,,,0.00,WUHU216HW,2013-01-08 02:27:00,
2013-01-07 19:32:00,28.8,9.5,29.87,North,0,0.0,0.0,44,0.00,,,0.00,WUHU216HW,2013-01-08 02:32:00,
2013-01-07 19:37:00,28.4,9.2,29.86,North,0,0.0,0.0,44,0.00,,,0.00,WUHU216HW,2013-01-08 02:37:00,
2013-01-07 19:42:00,28.4,9.7,29.86,North,0,0.0,0.0,45,0.00,,,0.00,WUHU216HW,2013-01-08 02:42:00,
2013-01-07 19:47:00,28.3,9.5,29.86,North,0,0.0,0.0,45,0.00,,,0.00,WUHU216HW,2013-01-08 02:47:00,
2013-01-07 19:52:00,28.1,9.9,29.87,North,0,0.0,0.0,46,0.00,,,0.00,WUHU216HW,2013-01-08 02:52:00,
2013-01-07 19:57:00,28.1,10.9,29.87,North,0,0.0,0.0,48,0.00,,,0.00,WUHU216HW,2013-01-08 02:57:00,
2013-01-07 20:02:00,27.5,9.4,29.86,North,0,0.0,0.0,46,0.00,,,0.00,WUHU216HW,2013-01-08 03:02:00,
2013-01-07 20:07:00,27.0,9.4,29.86,North,0,0.0,0.0,47,0.00,,,0.00,WUHU216HW,2013-01-08 03:07:00,
2013-01-07 20:12:00,26.6,9.5,29.86,North,0,0.0,0.0,48,0.00,,,0.00,WUHU216HW,2013-01-08 03:12:00,
2013-01-07 20:17:00,26.3,9.2,29.86,North,0,0.0,0.0,48,0.00,,,0.00,WUHU216HW,2013-01-08 03:17:00,
2013-01-07 20:22:00,25.9,9.8,29.86,North,0,0.0,0.0,50,0.00,,,0.00,WUHU216HW,2013-01-08 03:22:00,
2013-01-07 20:27:00,25.7,9.2,29.87,North,0,0.0,0.0,49,0.00,,,0.00,WUHU216HW,2013-01-08 03:27:00,
2013-01-07 20:32:00,25.6,9.5,29.86,North,0,0.0,0.0,50,0.00,,,0.00,WUHU216HW,2013-01-08 03:32:00,
2013-01-07 20:37:00,25.4,8.8,29.87,North,0,0.0,0.0,49,0.00,,,0.00,WUHU216HW,2013-01-08 03:37:00,
2013-01-07 20:42:00,25.2,9.2,29.86,North,0,0.0,0.0,50,0.00,,,0.00,WUHU216HW,2013-01-08 03:42:00,
2013-01-07 20:47:00,25.4,10.5,29.86,North,0,0.0,0.0,53,0.00,,,0.00,WUHU216HW,2013-01-08 03:47:00,
2013-01-07 20:52:00,25.6,12.3,29.86,North,0,0.0,0.0,57,0.00,,,0.00,WUHU216HW,2013-01-08 03:52:00,
2013-01-07 20:57:00,26.1,14.5,29.86,North,0,0.0,0.0,61,0.00,,,0.00,WUHU216HW,2013-01-08 03:57:00,
2013-01-07 21:02:00,26.6,14.9,29.86,North,0,0.0,0.0,61,0.00,,,0.00,WUHU216HW,2013-01-08 04:02:00,
2013-01-07 21:07:00,26.6,14.9,29.86,North,0,0.0,0.0,61,0.00,,,0.00,WUHU216HW,2013-01-08 04:07:00,
2013-01-07 21:12:00,26.5,14.4,29.86,North,0,0.0,0.0,60,0.00,,,0.00,WUHU216HW,2013-01-08 04:12:00,
2013-01-07 21:17:00,26.3,14.9,29.86,North,0,0.0,0.0,62,0.00,,,0.00,WUHU216HW,2013-01-08 04:17:00,
2013-01-07 21:22:00,25.9,14.0,29.85,North,0,0.0,0.0,60,0.00,,,0.00,WUHU216HW,2013-01-08 04:22:00,
2013-01-07 21:27:00,25.7,13.8,29.85,North,0,0.0,0.0,60,0.00,,,0.00,WUHU216HW,2013-01-08 04:27:00,
2013-01-07 21:32:00,25.6,14.7,29.85,North,0,0.0,0.0,63,0.00,,,0.00,WUHU216HW,2013-01-08 04:32:00,
2013-01-07 21:37:00,25.7,15.2,29.86,North,0,0.0,0.0,64,0.00,,,0.00,WUHU216HW,2013-01-08 04:37:00,
2013-01-07 21:42:00,25.7,15.6,29.86,North,0,0.0,0.0,65,0.00,,,0.00,WUHU216HW,2013-01-08 04:42:00,
2013-01-07 21:47:00,25.6,15.0,29.85,North,0,0.0,0.0,64,0.00,,,0.00,WUHU216HW,2013-01-08 04:47:00,
2013-01-07 21:52:00,25.2,14.3,29.85,North,0,0.0,0.0,63,0.00,,,0.00,WUHU216HW,2013-01-08 04:52:00,
2013-01-07 21:57:00,24.8,14.3,29.85,North,0,0.0,0.0,64,0.00,,,0.00,WUHU216HW,2013-01-08 04:57:00,
2013-01-07 22:02:00,24.5,14.0,29.85,North,0,0.0,0.0,64,0.00,,,0.00,WUHU216HW,2013-01-08 05:02:00,
2013-01-07 22:07:00,24.3,14.5,29.85,North,0,0.0,0.0,66,0.00,,,0.00,WUHU216HW,2013-01-08 05:07:00,
2013-01-07 22:12:00,24.3,14.5,29.85,North,0,0.0,0.0,66,0.00,,,0.00,WUHU216HW,2013-01-08 05:12:00,
2013-01-07 22:17:00,24.1,14.7,29.85,North,0,0.0,0.0,67,0.00,,,0.00,WUHU216HW,2013-01-08 05:17:00,
2013-01-07 22:22:00,23.8,14.7,29.85,North,0,0.0,0.0,68,0.00,,,0.00,WUHU216HW,2013-01-08 05:22:00,
2013-01-07 22:27:00,23.4,14.1,29.84,North,0,0.0,0.0,67,0.00,,,0.00,WUHU216HW,2013-01-08 05:27:00,
2013-01-07 22:32:00,23.0,14.0,29.84,North,0,0.0,0.0,68,0.00,,,0.00,WUHU216HW,2013-01-08 05:32:00,
2013-01-07 22:37:00,22.9,14.9,29.84,North,0,0.0,0.0,71,0.00,,,0.00,WUHU216HW,2013-01-08 05:37:00,
2013-01-07 22:42:00,22.9,14.6,29.84,North,0,0.0,0.0,70,0.00,,,0.00,WUHU216HW,2013-01-08 05:42:00,
2013-01-07 22:48:00,22.9,14.2,29.84,North,0,0.0,0.0,69,0.00,,,0.00,WUHU216HW,2013-01-08 05:48:00,
2013-01-07 22:53:00,23.0,15.0,29.84,North,0,0.0,0.0,71,0.00,,,0.00,WUHU216HW,2013-01-08 05:53:00,
2013-01-07 22:58:00,23.4,16.0,29.84,North,0,0.0,0.0,73,0.00,,,0.00,WUHU216HW,2013-01-08 05:58:00,
2013-01-07 23:03:00,23.4,15.4,29.84,North,0,0.0,0.0,71,0.00,,,0.00,WUHU216HW,2013-01-08 06:03:00,
2013-01-07 23:08:00,23.0,15.4,29.84,North,0,0.0,0.0,72,0.00,,,0.00,WUHU216HW,2013-01-08 06:08:00,
2013-01-07 23:13:00,22.7,14.7,29.84,North,0,0.0,0.0,71,0.00,,,0.00,WUHU216HW,2013-01-08 06:13:00,
2013-01-07 23:18:00,22.7,15.3,29.83,North,0,0.0,0.0,73,0.00,,,0.00,WUHU216HW,2013-01-08 06:18:00,
2013-01-07 23:23:00,22.9,16.1,29.83,North,0,0.0,0.0,75,0.00,,,0.00,WUHU216HW,2013-01-08 06:23:00,
2013-01-07 23:28:00,23.4,16.7,29.83,North,0,0.0,0.0,75,0.00,,,0.00,WUHU216HW,2013-01-08 06:28:00,
2013-01-07 23:33:00,23.4,16.3,29.83,North,0,0.0,0.0,74,0.00,,,0.00,WUHU216HW,2013-01-08 06:33:00,
2013-01-07 23:38:00,23.4,16.7,29.84,North,0,0.0,0.0,75,0.00,,,0.00,WUHU216HW,2013-01-08 06:38:00,
2013-01-07 23:43:00,23.0,15.7,29.83,North,0,0.0,0.0,73,0.00,,,0.00,WUHU216HW,2013-01-08 06:43:00,
2013-01-07 23:48:00,23.0,16.3,29.82,North,0,0.0,0.0,75,0.00,,,0.00,WUHU216HW,2013-01-08 06:48:00,
2013-01-07 23:53:00,24.8,19.3,29.82,North,0,0.0,0.0,79,0.00,,,0.00,WUHU216HW,2013-01-08 06:53:00,
2013-01-07 23:58:00,26.6,19.5,29.82,North,0,0.0,0.0,74,0.00,,,0.00,WUHU216HW,2013-01-08 06:58:00,